Weather History for KUUU - March, 2014

Change the Weather History Date:

Sunday, March 16, 2014

  Actual Average Record
Temperature  
Mean Temperature 34 °F -  
Max Temperature 39 °F 46 °F 60 °F (1986)
Min Temperature 28 °F 30 °F 15 °F (1993)
Degree Days  
Heating Degree Days 32    
Moisture  
Dew Point 9 °F    
Average Humidity 39    
Maximum Humidity 65    
Minimum Humidity 27    
Precipitation  
Precipitation 0.00 in - - ()
Sea Level Pressure  
Sea Level Pressure 30.08 in    
Wind  
Wind Speed 12 mph (NW)    
Max Wind Speed 18 mph    
Max Gust Speed 24 mph    
Visibility 10 miles    
Events      
Averages and records for this station are not official NWS values.
T = Trace of Precipitation, MM = Missing Value Source: NWS Daily Summary

Daily Weather History Graph

Daily Weather History Graph

Search for Another Location

Airport or City:

Trip Planner

Search our weather history database for the weather conditions in past years. The results will help you decide how hot, cold, wet, or windy it might be!

Date:

Astronomy

Mar. 16, 2014 Rise Set
Actual Time 6:55 AM EDT 6:52 PM EDT
Civil Twilight 6:27 AM EDT 7:20 PM EDT
Nautical Twilight 5:55 AM EDT 7:52 PM EDT
Astronomical Twilight 5:22 AM EDT 8:25 PM EDT
Moon 7:07 PM EDT (3/16) 6:36 AM EDT (3/16)
Length of Visible Light 12h 52m
Length of Day
11h 57m
Full, 100% of the Moon is Illuminated
Mar 16
Full
Mar 16
Full
Mar 23
Last Quarter
Mar 30
New
Apr 7
First Quarter

Hourly Weather History & Observations

Time (EDT) Temp. Windchill Dew Point Humidity Pressure Visibility Wind Dir Wind Speed Gust Speed Precip Events Conditions
12:53 AM 39.0 °F 34.0 °F 28.0 °F 65% 29.92 in 10.0 mi WNW 6.9 mph - N/A   Clear
1:53 AM 37.0 °F 29.3 °F 24.1 °F 59% 29.94 in 10.0 mi WNW 11.5 mph - N/A   Clear
2:53 AM 36.0 °F 28.5 °F 21.9 °F 57% 29.95 in 10.0 mi WNW 10.4 mph - N/A   Clear
3:53 AM 34.0 °F 25.0 °F 19.0 °F 54% 29.97 in 10.0 mi WNW 12.7 mph 20.7 mph N/A   Clear
4:53 AM 32.0 °F 21.2 °F 14.0 °F 48% 29.99 in 10.0 mi NW 16.1 mph 24.2 mph N/A   Clear
5:53 AM 30.9 °F 20.2 °F 10.9 °F 43% 30.01 in 10.0 mi NW 15.0 mph 21.9 mph N/A   Clear
6:53 AM 28.9 °F 16.5 °F 9.0 °F 43% 30.03 in 10.0 mi NW 18.4 mph 23.0 mph N/A   Clear
7:53 AM 28.9 °F 18.2 °F 7.0 °F 40% 30.06 in 10.0 mi WNW 13.8 mph 21.9 mph N/A   Clear
8:53 AM 30.0 °F 18.7 °F 8.1 °F 40% 30.08 in 10.0 mi WNW 16.1 mph 24.2 mph N/A   Clear
9:53 AM 30.9 °F 19.4 °F 8.1 °F 38% 30.11 in 10.0 mi NW 17.3 mph 21.9 mph N/A   Clear
10:53 AM 30.9 °F 19.4 °F 8.1 °F 38% 30.11 in 10.0 mi NW 17.3 mph 23.0 mph N/A   Clear
11:53 AM 32.0 °F 24.2 °F 9.0 °F 38% 30.12 in 10.0 mi NW 9.2 mph - N/A   Clear
12:53 PM 34.0 °F 25.0 °F 9.0 °F 35% 30.11 in 10.0 mi WNW 12.7 mph 19.6 mph N/A   Clear
1:53 PM 35.1 °F 27.4 °F 8.1 °F 33% 30.10 in 10.0 mi NW 10.4 mph - N/A   Clear
2:53 PM 34.0 °F 26.0 °F 7.0 °F 32% 30.10 in 10.0 mi NW 10.4 mph - N/A   Clear
3:53 PM 34.0 °F 25.5 °F 3.0 °F 27% 30.10 in 10.0 mi NW 11.5 mph 19.6 mph N/A   Clear
4:53 PM 34.0 °F 25.0 °F 3.0 °F 27% 30.10 in 10.0 mi NW 12.7 mph - N/A   Clear
5:53 PM 32.0 °F 26.4 °F 1.9 °F 28% 30.12 in 10.0 mi Variable 5.8 mph - N/A   Clear
6:53 PM 30.9 °F 23.5 °F 1.9 °F 29% 30.14 in 10.0 mi WNW 8.1 mph 19.6 mph N/A   Partly Cloudy
7:53 PM 30.0 °F 20.5 °F -0.0 °F 28% 30.18 in 10.0 mi WNW 11.5 mph - N/A   Mostly Cloudy
8:53 PM 30.0 °F 22.4 °F 1.9 °F 30% 30.19 in 10.0 mi WNW 8.1 mph - N/A   Overcast
9:53 PM 28.9 °F 19.2 °F 1.0 °F 30% 30.18 in 10.0 mi WNW 11.5 mph - N/A   Overcast
10:53 PM 28.0 °F 18.1 °F 3.0 °F 34% 30.16 in 10.0 mi NW 11.5 mph - N/A   Overcast
11:53 PM 28.0 °F 19.3 °F 3.9 °F 36% 30.15 in 10.0 mi NNW 9.2 mph - N/A   Mostly Cloudy